Home   Weather   Toledo   Past weeks

Flag for USA Past Weather in Toledo, Ohio, USA — Yesterday and Last 2 Weeks

50 °F


Feels Like: 46 °F
Forecast: 45 / 52 °F
Wind: 9 mph from North

Location: Toledo Suburban Airport

Current Time: Oct 21, 2016 at 12:51:09 PM

Latest Report: Oct 21, 2016 at 12:15 PM

Visibility: 10 mi

Pressure: 30.03 "Hg

Humidity: 76%

Dew Point: 43 °F

Location of ToledoLocation

Past Weather in Toledo — Graph


Toledo Temperature Yesterday

Maximum temperature yesterday: 61 °F (at 12:14 AM)
Minimum temperature yesterday: 52 °F (at 11:55 PM)
Average temperature yesterday: 56 °F

High & Low Weather Summary for the Past Weeks

High83 °F (Oct 6, 2:35 PM)96% (Oct 19, 6:14 AM)30.46 "Hg (Oct 19, 6:14 AM)
Low34 °F (Oct 14, 7:34 AM)34% (Oct 8, 2:55 PM)29.65 "Hg (Oct 17, 11:15 PM)
Average60 °F73%30.11 "Hg
* Reported Oct 6 11:14 AM — Oct 21 11:34 AM, Toledo, Weather by CustomWeather, © 2016

Note: Actual official high and low records may vary slightly from our data, if they occured in-between our weather recording intervals... More about our weather records


Toledo Weather History for the Previous 24 Hours

Scroll right to see more
Time TempWeatherWind HumidityBarometerVisibility
11:34 AM
Fri, Oct 21
49 °FOvercast.9 mph79%30.02 "Hg10 mi
11:15 AM48 °FPartly sunny.9 mph81%30.02 "Hg10 mi
10:54 AM47 °FCloudy.13 mph82%30.01 "Hg10 mi
10:34 AM46 °FMore clouds than sun.12 mph83%30.01 "Hg10 mi
10:14 AM46 °FMore clouds than sun.12 mph83%30.01 "Hg10 mi
9:55 AM46 °FMore clouds than sun.10 mph84%30.00 "Hg10 mi
9:34 AM46 °FMore clouds than sun.8 mph84%30.00 "Hg10 mi
9:14 AM46 °FMore clouds than sun.10 mph85%30.00 "Hg10 mi
8:55 AM46 °FMore clouds than sun.7 mph87%30.00 "Hg10 mi
8:34 AM46 °FCloudy.10 mph87%29.99 "Hg10 mi
8:14 AM46 °FOvercast.10 mph87%29.99 "Hg10 mi
7:55 AM46 °FDrizzle. Overcast.10 mph88%30.00 "Hg10 mi
7:34 AM46 °FLight rain. Overcast.8 mph89%30.00 "Hg10 mi
7:14 AM46 °FLight rain. Overcast.7 mph89%29.99 "Hg10 mi
6:55 AM46 °FLight rain. Mostly cloudy.8 mph89%29.99 "Hg10 mi
6:34 AM46 °FLight rain. Mostly cloudy.9 mph89%29.98 "Hg10 mi
6:14 AM46 °FLight rain. Overcast.10 mph89%30.00 "Hg10 mi
5:55 AM47 °FLight rain. Overcast.9 mph88%30.00 "Hg10 mi
5:34 AM47 °FLight rain. Mostly cloudy.10 mph88%29.98 "Hg10 mi
5:14 AM48 °FLight rain. Mostly cloudy.10 mph85%29.97 "Hg10 mi
4:55 AM48 °FOvercast.9 mph85%30.00 "Hg10 mi
4:34 AM49 °FMostly cloudy.9 mph84%29.99 "Hg10 mi
4:14 AM48 °FMostly cloudy.9 mph86%29.96 "Hg10 mi
3:55 AM48 °FLight rain. Mostly cloudy.10 mph87%29.96 "Hg10 mi
3:34 AM49 °FLight rain. Overcast.10 mph86%29.98 "Hg10 mi
3:14 AM49 °FLight rain. Overcast.10 mph86%30.00 "Hg10 mi
2:55 AM49 °FMostly cloudy.10 mph86%30.01 "Hg10 mi
2:34 AM50 °FOvercast.12 mph88%30.00 "Hg10 mi
2:14 AM50 °FLight rain. Mostly cloudy.10 mph89%30.00 "Hg10 mi
1:55 AM51 °FLight rain. Overcast.12 mph90%29.99 "Hg10 mi
1:34 AM51 °FDrizzle. Overcast.8 mph91%30.00 "Hg10 mi
1:14 AM51 °FMostly cloudy.14 mph90%29.99 "Hg10 mi
12:55 AM51 °FOvercast.9 mph91%29.99 "Hg10 mi
12:34 AM51 °FDrizzle. Mostly cloudy.9 mph91%30.00 "Hg10 mi
12:14 AM52 °FDrizzle. Mostly cloudy.13 mph91%30.00 "Hg10 mi
11:55 PM
Thu, Oct 20
52 °FLight rain. Mostly cloudy.13 mph92%30.00 "Hg10 mi
11:34 PM53 °FLight rain. Mostly cloudy.12 mph92%30.01 "Hg10 mi
11:14 PM54 °FLight rain. Mostly cloudy.9 mph92%30.01 "Hg10 mi
10:55 PM54 °FLight rain. Mostly cloudy.8 mph93%30.02 "Hg10 mi
10:34 PM54 °FLight rain. Mostly cloudy.6 mph93%30.03 "Hg10 mi
10:14 PM54 °FRain. Mostly cloudy.9 mph92%30.03 "Hg10 mi
9:55 PM54 °FLight rain. Mostly cloudy.6 mph92%30.03 "Hg10 mi
9:34 PM54 °FLight rain. Mostly cloudy.7 mph93%30.02 "Hg10 mi
9:14 PM54 °FRain. Low clouds.6 mph94%30.01 "Hg10 mi
8:55 PM54 °FLight rain. Mostly cloudy.5 mph94%30.00 "Hg7 mi
8:34 PM54 °FLight rain. Mostly cloudy.5 mph94%30.00 "Hg7 mi
8:14 PM54 °FLight rain. Mostly cloudy.3 mph94%30.01 "Hg7 mi
7:55 PM54 °FLight rain. Overcast.5 mph94%30.02 "Hg7 mi
7:34 PM54 °FRain. Overcast.6 mph93%30.01 "Hg7 mi
7:14 PM54 °FDrizzle. Overcast.5 mph93%30.02 "Hg10 mi
6:55 PM54 °FLight rain. Overcast.7 mph92%30.00 "Hg10 mi
6:34 PM54 °FLight rain. Mostly cloudy.5 mph92%30.01 "Hg10 mi
6:14 PM55 °FLight rain. Cloudy.5 mph92%30.02 "Hg10 mi
5:55 PM55 °FDrizzle. Mostly cloudy.6 mph93%30.01 "Hg10 mi
5:34 PM55 °FLight rain. More clouds than sun.7 mph93%30.00 "Hg10 mi
5:14 PM55 °FLight rain. More clouds than sun.5 mph93%30.00 "Hg10 mi
4:54 PM55 °FLight rain. Cloudy.3 mph92%30.02 "Hg7 mi
4:34 PM55 °FRain. More clouds than sun.5 mph92%30.01 "Hg7 mi
4:14 PM55 °FRain. Overcast.6 mph92%30.02 "Hg10 mi
3:54 PM55 °FLight rain. More clouds than sun.6 mph93%30.01 "Hg7 mi
3:34 PM56 °FLight rain. More clouds than sun.5 mph93%30.02 "Hg10 mi
3:14 PM56 °FRain. More clouds than sun.6 mph92%30.01 "Hg10 mi
2:54 PM56 °FRain. Cloudy.6 mph93%30.02 "Hg10 mi
2:34 PM56 °FRain. Mostly cloudy.6 mph93%30.01 "Hg7 mi
2:14 PM56 °FLight rain. Cloudy.5 mph92%30.02 "Hg10 mi
1:54 PM56 °FRain. Cloudy.No wind92%30.03 "Hg7 mi
1:34 PM56 °FLight rain. Cloudy.6 mph92%30.03 "Hg10 mi
1:14 PM56 °FLight rain. Cloudy.7 mph93%30.02 "Hg10 mi
12:54 PM56 °FLight rain. More clouds than sun.3 mph92%30.06 "Hg7 mi
12:35 PM56 °FRain. Cloudy.No wind93%30.06 "Hg5 mi
12:14 PM56 °FRain. Mostly cloudy.3 mph92%30.04 "Hg7 mi
Weather by CustomWeather, © 2016

See weather overviewHow to use our weather pages